DECAYED

STARLINK-4015, 52616 (Decayed)

Orbit data source: Space-Track

STARLINK-4015, 52616 was a payload satellite owned by SpaceX/Seattle (US) in LEO that was launched on Sat, 14 May 2022 UTC via an FALCON 9 launch vehicle from the Air Force Eastern Test Range (AFETR). Payload-class satellites include a variety of spacecraft equipped with specific instruments for various scientific and technological missions. These include communications satellites like Starlink; space stations such as the ISS; scientific satellites like the Hubble; Earth observation satellites from companies like Planet Labs, Umbra, and HawkEye 360; GPS; miniature CubeSats for education and research; and military/defense satellites.

Not visible in the next 10 days
Identifier
52616, 2022-052U
Orbit
Decayed
Country
Flag of USUS
Related business
Manufacturer
SpaceX/Seattle
Mission
Decayed Commercial Communications
Bus & Motor
STARLINK, Unknown motor
Mass
297 kg wet, ~275 kg dry
Launch date (UTC)
2022-05-14 (4 years ago)
Launch vehicle
FALCON 9
Launch site
Air Force Eastern Test Range (AFETR)
Object type
Payload
Rocket body
Debris
Shape & HBR
Box + 1 Pan, 10.1 m
Radar Cross Section
13.562 m², Large (>1 m²)

Expand to show TLE details & history
Last TLE update: 5 months ago

TLE from 5 months ago
0 STARLINK-4015
1 52616U 22052U   26033.16407583  .10617487  12378-4  23117-3 0  9995
2 52616  53.2032  45.4723 0009016 205.4563 154.6046 16.46010818205955
Epoch: 2026-02-02T03:56Z
TLE epoch observation values (Epoch: 2026-02-02T03:56:16.151Z)
Latitude
0.00002°
Longitude
-145.95828°
Altitude
156.129 km
Speed
7.811 km/s
True Right ascension
03h 01m 53s
True Declination
0° 00' 00"
Sunlit
Object was in daylight at epoch
Visualization orbit readout
Latitude
Unknown
Longitude
Unknown
Altitude
Unknown
Speed
Unknown
Apparent Right ascension
Unknown
Apparent Declination
Unknown
Sunlit
N/A
Visualization observer readout
Local Sidereal Time
21:28:55
Azimuth
Unknown
Elevation
Unknown
Doppler factor
Unknown
Orbital elements
Apogee altitude
156.009 km
Perigee altitude
144.237 km
Semi-major axis
6,528.26 km
Eccentricity
0.0009
Inclination
53.2032°
RAAN
45.4723°
Arg. of periapsis
205.4563°
True anomaly
154.64886°
Mean anomaly
154.6046°
Eccentric anomaly
154.62674°
Mean motion
4.11478 °/min
Orbital period
87.49 mins
BSTAR
0.00023117
Loading maneuver chart data...
Computing Atmospheric mass density...
Loading historical data...
Loading historical data...
Loading historical data...
Loading historical data...
Loading historical data...
Loading historical data...
Loading historical data...

Documentation

Showing up to 5 results
|